Flag for China Weather past 2 weeks in Guangzhou, Guangdong, China

Now
75 °F

Fog.


Feels Like: 75 °F
Forecast: 73 / 81 °F
Wind: 3 mph from Northeast

Location: Canton Airport

Current Time: Apr 1, 2015 at 9:17:24 AM

Latest Report: Apr 1, 2015 at 8:30 AM


Visibility: 3 mi

Pressure: 29.92 "Hg

Humidity: 89%

Dew point: 72 °F

Location of GuangzhouLocation

Historic Weather in Guangzhou — Graph

°F

Guangzhou temperature yesterday

Maximum temperature yesterday: 86 °F (at 2:00 PM)
Minimum temperature yesterday: 73 °F (at 12:00 AM)
Average temperature yesterday: 78 °F

Past Weeks' High & Low Weather Summary

 TemperatureHumidityPressure
High86 °F (Mar 19, 3:30 PM)100% (Mar 20, 7:30 AM)30.30 "Hg (Mar 20, 7:30 AM)
Low61 °F (Mar 26, 5:30 AM)51% (Mar 20, 4:00 PM)29.77 "Hg (Mar 17, 4:00 PM)
Average73 °F78%30.03 "Hg
* Reported Mar 17 8:00 AM — Apr 1 8:00 AM, Guangzhou, Weather by CustomWeather, © 2015

Note: Actual official high and low records may vary slightly from our data, if they occured in-between our weather recording intervals... More about our weather records

Advertising

Guangzhou weather history for previous 24 hours

 ConditionsComfort  
Time TempWeatherWind HumidityBarometerVisibility
8:00 AM
Wed, Apr 1
75 °FFog.3 mph83%29.92 "Hg3 mi
7:30 AM73 °FFog.1 mph89%29.92 "Hg3 mi
7:00 AM73 °FFog.1 mph89%29.89 "Hg3 mi
6:30 AM73 °FFog.1 mph89%29.89 "Hg3 mi
6:00 AM75 °FPartly cloudy.3 mph83%29.86 "Hg4 mi
5:30 AM75 °FPassing clouds.3 mph83%29.86 "Hg5 mi
5:00 AM73 °FPassing clouds.3 mph89%29.86 "Hg5 mi
4:30 AM73 °FPassing clouds.3 mph89%29.86 "Hg5 mi
4:00 AM73 °FPassing clouds.3 mph89%29.86 "Hg5 mi
3:30 AM73 °FPassing clouds.1 mph89%29.86 "Hg5 mi
3:00 AM73 °FPassing clouds.3 mph89%29.86 "Hg5 mi
2:30 AM73 °FPassing clouds.3 mph89%29.89 "Hg5 mi
2:00 AM73 °FPassing clouds.1 mph89%29.89 "Hg5 mi
1:30 AM73 °FPassing clouds.3 mph89%29.89 "Hg5 mi
1:00 AM73 °FPassing clouds.3 mph89%29.89 "Hg5 mi
12:30 AM73 °FPassing clouds.3 mph89%29.92 "Hg5 mi
12:00 AM73 °FPassing clouds.6 mph89%29.92 "Hg5 mi
11:30 PM
Tue, Mar 31
75 °FPassing clouds.6 mph83%29.92 "HgN/A
11:00 PM75 °FPassing clouds.8 mph83%29.92 "HgN/A
10:30 PM75 °FClear.6 mph83%29.92 "Hg10 mi
10:00 PM75 °FClear.8 mph83%29.92 "Hg10 mi
9:30 PM77 °FClear.10 mph79%29.89 "Hg10 mi
9:00 PM77 °FPassing clouds.8 mph79%29.89 "HgN/A
8:30 PM77 °FPassing clouds.8 mph79%29.86 "HgN/A
8:00 PM77 °FClear.6 mph79%29.86 "Hg10 mi
7:30 PM77 °FClear.8 mph79%29.86 "Hg10 mi
7:00 PM79 °FClear.8 mph74%29.83 "Hg10 mi
6:30 PM81 °FScattered clouds.8 mph70%29.83 "HgN/A
6:00 PM81 °FScattered clouds.8 mph70%29.83 "HgN/A
5:30 PM82 °FPassing clouds.10 mph66%29.83 "HgN/A
5:00 PM82 °FPartly sunny.10 mph66%29.83 "HgN/A
4:30 PM82 °FPartly sunny.8 mph66%29.83 "HgN/A
4:00 PM84 °FPartly sunny.10 mph62%29.83 "HgN/A
3:30 PM84 °FPartly sunny.10 mph62%29.83 "HgN/A
3:00 PM84 °FPartly sunny.13 mph58%29.86 "HgN/A
2:30 PM84 °FPartly sunny.10 mph62%29.86 "HgN/A
2:00 PM86 °FPartly sunny.13 mph59%29.86 "HgN/A
1:30 PM84 °FPartly sunny.8 mph62%29.89 "HgN/A
1:00 PM84 °FPartly sunny.10 mph62%29.92 "HgN/A
12:30 PM84 °FPartly sunny.10 mph62%29.92 "HgN/A
12:00 PM82 °FPartly sunny.6 mph66%29.95 "Hg5 mi
11:30 AM81 °FPartly sunny.6 mph70%29.95 "Hg5 mi
10:30 AM79 °FPartly sunny.6 mph74%29.98 "Hg4 mi
10:00 AM77 °FBroken clouds.3 mph79%29.98 "Hg4 mi
9:30 AM77 °FBroken clouds.6 mph79%29.98 "Hg4 mi
9:00 AM77 °FClear.6 mph79%29.98 "Hg4 mi
Weather by CustomWeather, © 2015

See weather overviewHow to use our weather pages